File timestamp: Sat Aug 27 00:00:00 2016, Internal temp: 21.7437744140625
1472256000.99, -0.00143111601937562, -0.0389967225492001, 0.0346605889499187, 33496, 32327, 23212, 147.386306762695
1472256002, -0.000286492286249995, -0.0383210256695747, 0.0350285358726978, 33498, 32321, 23207, NaN
1472256002.998, 0.00137307133991271, -0.0384724251925945, 0.0353104323148727, 33525, 32323, 23200, NaN
1472256003.998, 0.00328208575956523, -0.0381065346300602, 0.0347629226744175, 33509, 32325, 23200, NaN
1472256004.998, 0.00489418487995863, -0.0385167635977268, 0.0345129147171974, 33494, 32325, 23216, NaN
1472256004.998, 0.00623349845409393, -0.0390721186995506, 0.0341312251985073, 33513, 32333, 23198, NaN
1472256006.004, 0.00757991382852197, -0.0391331054270267, 0.0337611511349678, 33502, 32313, 23202, NaN
1472256007.004, 0.00948562100529671, -0.0393654517829418, 0.0335058197379112, 33496, 32326, 23212, NaN
1472256008.004, 0.012311665341258, -0.0389743149280548, 0.0334901250898838, 33510, 32309, 23211, NaN
1472256009.004, 0.0151943685486913, -0.0383909307420254, 0.0337757878005505, 33501, 32319, 23208, NaN
1472256010.004, 0.0176519975066185, -0.03861128911376, 0.0344449952244759, 33510, 32313, 23193, NaN
1472256011.004, 0.019417654722929, -0.0388937965035439, 0.0353843495249748, 33506, 32328, 23199, NaN
1472256012.004, 0.020597530528903, -0.0384733341634274, 0.0349111743271351, 33497, 32339, 23215, NaN
1472256013.004, 0.0214171670377254, -0.0383864231407642, 0.0347563363611698, 33506, 32314, 23189, NaN
1472256014.004, 0.0224032923579216, -0.0382301807403564, 0.0345061048865318, 33507, 32323, 23210, NaN
1472256015.004, 0.0242070257663727, -0.0383748970925808, 0.0343116670846939, 33506, 32329, 23201, NaN
1472256016.004, 0.0260038822889328, -0.0389678701758385, 0.0344411209225655, 33491, 32322, 23203, NaN
1472256017.004, 0.0270919967442751, -0.0386300906538963, 0.0343260020017624, 33500, 32317, 23212, NaN
1472256018.004, 0.0284493733197451, -0.0384366475045681, 0.0337509214878082, 33502, 32329, 23197, NaN
1472256019.004, 0.0287722274661064, -0.0379961244761944, 0.0338721312582493, 33510, 32312, 23203, NaN
1472256020.004, 0.0283512901514769, -0.0379161275923252, 0.0351018607616425, 33489, 32323, 23200, NaN
1472256021.004, 0.0287728160619736, -0.0383258797228336, 0.0354652889072895, 33494, 32328, 23212, NaN
1472256022.004, 0.0280854906886816, -0.0377280674874783, 0.035318985581398, 33502, 32310, 23206, NaN
1472256023.004, 0.0268723759800196, -0.0381087400019169, 0.0353501439094543, 33500, 32314, 23210, NaN
1472256024.004, 0.0250550098717213, -0.0370213389396667, 0.0361266992986202, 33509, 32314, 23197, NaN
1472256025.004, 0.0222455617040396, -0.0368356890976429, 0.0360644608736038, 33499, 32311, 23205, NaN
1472256026.004, 0.0192734077572823, -0.0373459793627262, 0.0361077152192593, 33496, 32321, 23202, NaN
1472256027.014, 0.0172952804714441, -0.037140604108572, 0.0358352959156036, 33512, 32337, 23194, NaN
1472256028.014, 0.0145144984126091, -0.0372350625693798, 0.036113329231739, 33512, 32315, 23204, NaN
1472256028.014, 0.0116645535454154, -0.0375242307782173, 0.0348958633840084, 33500, 32315, 23200, NaN
1472256029.022, 0.0091956565156579, -0.0378174781799316, 0.0344957038760185, 33504, 32327, 23204, NaN
1472256030.022, 0.00583245884627104, -0.0384864248335361, 0.0348027497529984, 33522, 32318, 23195, NaN
1472256031.022, 0.00220868783071637, -0.0381072238087654, 0.034654151648283, 33499, 32332, 23196, NaN
1472256032.022, -0.00171045935712755, -0.0381276980042458, 0.0340124219655991, 33491, 32321, 23202, NaN
1472256032.022, -0.00495197577401996, -0.0371034368872643, 0.0341795533895493, 33503, 32318, 23208, NaN
1472256033.028, -0.00697221886366606, -0.0372745953500271, 0.0347819179296494, 33510, 32325, 23214, NaN
1472256034.028, -0.00859018322080374, -0.0373040623962879, 0.0350781604647636, 33503, 32326, 23205, NaN
1472256035.028, -0.0104351975023746, -0.0368217416107655, 0.035367988049984, 33501, 32320, 23200, NaN
1472256036.028, -0.0120952716097236, -0.0364772118628025, 0.0355005227029324, 33504, 32328, 23195, NaN
1472256036.028, -0.0132761336863041, -0.0366912260651588, 0.0351531058549881, 33496, 32325, 23195, NaN
1472256037.034, -0.0155343022197485, -0.0370419509708881, 0.0354229547083378, 33496, 32322, 23199, NaN
1472256038.034, -0.0183521304279566, -0.0369423255324364, 0.0351531468331814, 33495, 32332, 23197, NaN
1472256039.034, -0.02154122851789, -0.0374222286045551, 0.0350220687687397, 33513, 32320, 23201, NaN
1472256040.034, -0.0238117091357708, -0.0380444824695587, 0.0349303148686886, 33513, 32322, 23202, NaN
1472256041.034, -0.0248970296233892, -0.0378208011388779, 0.0345725826919079, 33508, 32328, 23203, NaN
1472256042.034, -0.0246419291943312, -0.0379922725260258, 0.0342480428516865, 33500, 32320, 23211, NaN
1472256043.034, -0.0242469776421785, -0.037877831608057, 0.0339626669883728, 33488, 32329, 23207, NaN
1472256044.034, -0.0235055703669786, -0.0386603958904743, 0.0346198901534081, 33510, 32323, 23197, NaN
1472256045.034, -0.0229199696332216, -0.0383104607462883, 0.0349696055054665, 33515, 32318, 23198, NaN
1472256046.034, -0.0219100583344698, -0.0378538258373737, 0.0342779271304607, 33501, 32319, 23207, NaN
1472256047.034, -0.0206758715212345, -0.0381547398865223, 0.0335294455289841, 33503, 32314, 23205, NaN
1472256048.034, -0.0187081824988127, -0.0387945845723152, 0.0332003980875015, 33501, 32323, 23210, NaN
1472256049.034, -0.0164064690470695, -0.0389272458851337, 0.0325570553541183, 33518, 32328, 23197, NaN
1472256050.034, -0.0141350449994206, -0.0393035151064396, 0.0324421226978302, 33511, 32319, 23186, NaN
1472256051.034, -0.012045331299305, -0.0385971069335938, 0.0323227606713772, 33499, 32330, 23197, NaN
1472256052.034, -0.0102196270599961, -0.0381069332361221, 0.0325352735817432, 33517, 32312, 23191, NaN
1472256053.044, -0.0088206073269248, -0.0378719195723534, 0.032630767673254, 33504, 32318, 23208, NaN
1472256054.044, -0.00722931046038866, -0.0375635325908661, 0.0316298082470894, 33517, 32322, 23202, NaN
1472256055.044, -0.00535959284752607, -0.0378261171281338, 0.0316432677209377, 33486, 32322, 23210, NaN
1472256055.044, -0.00283785513602197, -0.0379902943968773, 0.0320710986852646, 33497, 32319, 23204, NaN
1472256056.052, -0.000354674208210781, -0.0381958037614822, 0.03198117390275, 33482, 32309, 23209, 148.154357910156
1472256057.052, 0.00141419051215053, -0.0372653119266033, 0.0322051383554935, 33495, 32316, 23206, NaN
1472256058.052, 0.00610237801447511, -0.0374300926923752, 0.031731128692627, 33499, 32321, 23198, NaN
1472256059.052, 0.0134708918631077, -0.0378590971231461, 0.0316558480262756, 33496, 32322, 23206, NaN
1472256059.052, 0.0220047738403082, -0.0363096818327904, 0.0301411170512438, 33505, 32322, 23201, NaN
1472256060.058, 0.0312796793878078, -0.0354025475680828, 0.0300408508628607, 33498, 32331, 23209, NaN
1472256061.058, 0.0406736582517624, -0.0351375006139278, 0.0299927834421396, 33499, 32324, 23204, NaN
1472256062.058, 0.0487555116415024, -0.0349881760776043, 0.0302848126739264, 33513, 32337, 23200, NaN
1472256063.058, 0.0564597696065903, -0.0347585007548332, 0.0301384776830673, 33502, 32308, 23205, NaN
1472256063.058, 0.0638587698340416, -0.0344784297049046, 0.0303138960152864, 33507, 32318, 23199, NaN
1472256064.062, 0.0704302489757538, -0.0344588458538055, 0.0303485877811909, 33520, 32308, 23206, NaN
1472256065.062, 0.0762457251548767, -0.0342513658106327, 0.030157869681716, 33504, 32320, 23219, NaN
1472256066.062, 0.0810694247484207, -0.0342348217964172, 0.02995740249753, 33500, 32320, 23217, NaN
1472256067.062, 0.0850556641817093, -0.0345225930213928, 0.0292881745845079, 33514, 32319, 23207, NaN
1472256068.062, 0.0881729051470757, -0.0346732288599014, 0.0296568963676691, 33511, 32331, 23205, NaN
1472256069.062, 0.0903062596917152, -0.0348364114761353, 0.0294685792177916, 33524, 32324, 23201, NaN
1472256070.062, 0.091991975903511, -0.0347031727433205, 0.0288005284965038, 33508, 32323, 23199, NaN
1472256071.062, 0.093147337436676, -0.0343718752264977, 0.0283626690506935, 33499, 32328, 23203, NaN
1472256072.062, 0.0928420200943947, -0.0343946926295757, 0.0285763200372458, 33494, 32323, 23212, NaN
1472256073.062, 0.0905226618051529, -0.0346752740442753, 0.028579194098711, 33506, 32319, 23204, NaN
1472256074.062, 0.0866909027099609, -0.0351087637245655, 0.02883012406528, 33489, 32314, 23212, NaN
1472256075.062, 0.0825431346893311, -0.0356509983539581, 0.0293675716966391, 33513, 32320, 23193, NaN
1472256076.062, 0.0795218795537949, -0.0357710123062134, 0.0293375179171562, 33500, 32334, 23193, NaN
1472256077.062, 0.0799245908856392, -0.035790704190731, 0.0301155187189579, 33510, 32307, 23199, NaN
1472256078.062, 0.0840329900383949, -0.0356973148882389, 0.0296297390013933, 33489, 32322, 23203, NaN
1472256079.062, 0.09178077429533, -0.0355448313057423, 0.0294168777763844, 33502, 32325, 23206, NaN
1472256080.07, 0.103139519691467, -0.0355196818709373, 0.0293898358941078, 33505, 32324, 23200, NaN
1472256081.07, 0.117303058505058, -0.0356088243424892, 0.028421625494957, 33507, 32332, 23205, NaN
1472256081.07, 0.132020682096481, -0.0359551534056664, 0.0272219069302082, 33509, 32321, 23199, NaN
1472256082.078, 0.114155650138855, -0.0366656258702278, 0.0270030610263348, 33519, 32326, 23209, NaN
1472256083.078, 0.0822812914848328, -0.037311963737011, 0.027051193639636, 33507, 32331, 23199, NaN
1472256084.078, 0.0545727536082268, -0.0367823541164398, 0.0274728871881962, 33509, 32329, 23206, NaN
1472256085.078, 0.0307572856545448, -0.0363966040313244, 0.0266580414026976, 33513, 32319, 23189, NaN
1472256085.078, 0.0105592664331198, -0.0371011570096016, 0.0267085991799831, 33497, 32311, 23208, NaN
1472256086.084, -0.00629805028438568, -0.0378501042723656, 0.0268421526998281, 33491, 32324, 23199, NaN
1472256087.084, -0.0200906582176685, -0.0381227992475033, 0.0264488477259874, 33492, 32332, 23210, NaN
1472256088.084, -0.031091870740056, -0.0378323309123516, 0.0266933850944042, 33512, 32320, 23213, NaN
1472256089.084, -0.0395704135298729, -0.0379536598920822, 0.0271063763648272, 33502, 32317, 23209, NaN
1472256090.084, -0.045788612216711, -0.0386000014841557, 0.0272299516946077, 33490, 32314, 23219, NaN
1472256091.084, -0.0500006712973118, -0.0383252091705799, 0.0276566091924906, 33501, 32310, 23194, NaN
1472256092.084, -0.0524511262774467, -0.0371430739760399, 0.0274898018687963, 33511, 32334, 23213, NaN
1472256093.084, -0.0533734709024429, -0.0371757447719574, 0.0270959846675396, 33488, 32313, 23203, NaN
1472256094.084, -0.0529889725148678, -0.036844577640295, 0.0274120476096869, 33503, 32321, 23193, NaN
1472256095.084, -0.0515057146549225, -0.0368383750319481, 0.0274641215801239, 33498, 32327, 23207, NaN
1472256096.084, -0.0491177998483181, -0.0358765386044979, 0.0279120225459337, 33494, 32330, 23190, NaN
1472256097.084, -0.0460048280656338, -0.0368912257254124, 0.0268342606723309, 33510, 32318, 23197, NaN
1472256098.084, -0.0423315092921257, -0.0368993058800697, 0.0265109017491341, 33489, 32318, 23206, NaN
1472256099.084, -0.0382475219666958, -0.0367515906691551, 0.02670075930655, 33507, 32318, 23201, NaN
1472256100.084, -0.0338875278830528, -0.0364384576678276, 0.0267909206449986, 33512, 32331, 23205, NaN
1472256101.084, -0.0293713379651308, -0.0369366146624088, 0.0262074824422598, 33494, 32318, 23198, NaN
1472256102.084, -0.0248042661696672, -0.0367949157953262, 0.0253752451390028, 33498, 32323, 23209, NaN
1472256103.084, -0.0202775895595551, -0.0370762273669243, 0.0240578707307577, 33522, 32324, 23200, NaN
1472256104.084, -0.0158691313117743, -0.0366558358073235, 0.0241086278110743, 33514, 32322, 23207, NaN
1472256105.084, -0.0116439424455166, -0.0361968465149403, 0.0238465145230293, 33512, 32322, 23199, NaN
1472256106.084, -0.00765505712479353, -0.0353351011872292, 0.0237238667905331, 33512, 32320, 23196, NaN
1472256107.094, -0.00394432339817286, -0.0358303226530552, 0.0227820388972759, 33500, 32325, 23195, NaN
1472256108.094, -0.000543268746696413, -0.0365624837577343, 0.0228812694549561, 33513, 32316, 23202, NaN
1472256109.094, 0.00252599967643619, -0.0372454039752483, 0.0236753784120083, 33515, 32323, 23201, NaN
1472256109.094, 0.00524987978860736, -0.0368448495864868, 0.0239372421056032, 33502, 32316, 23197, NaN
1472256110.102, 0.00762235512956977, -0.0380216650664806, 0.0243531372398138, 33509, 32335, 23191, 149.870803833008
1472256111.102, 0.00947455782443285, -0.0385119356215, 0.0240008234977722, 33508, 32324, 23193, NaN
1472256112.102, 0.00825400743633509, -0.0377398319542408, 0.0238792318850756, 33504, 32325, 23218, NaN
1472256112.462, 0.00724104093387723, -0.0373699031770229, 0.0238363649696112, 33507, 32323, 23187, NaN
1472256112.462, 0.00457585416734219, -0.0372909381985664, 0.0240619275718927, 33497, 32310, 23209, NaN
1472256113.468, 0.000986332772299647, -0.0376775674521923, 0.0242309290915728, 33504, 32308, 23212, NaN
1472256114.468, -0.00282427878119051, -0.0377151034772396, 0.0242740400135517, 33516, 32321, 23198, NaN
1472256115.468, -0.00586051540449262, -0.0391085706651211, 0.024363225325942, 33510, 32319, 23204, NaN
1472256116.468, -0.00944446958601475, -0.0389723852276802, 0.024317929521203, 33504, 32334, 23204, NaN
1472256116.468, -0.012375365011394, -0.0390094816684723, 0.024385953322053, 33510, 32319, 23207, NaN
1472256117.472, -0.0135913863778114, -0.0390065163373947, 0.0235233400017023, 33501, 32332, 23211, NaN
1472256118.472, -0.0135138472542167, -0.0386292226612568, 0.0227607674896717, 33500, 32314, 23208, NaN
1472256119.472, -0.0128921028226614, -0.0382527932524681, 0.0224372521042824, 33501, 32317, 23211, NaN
1472256120.472, -0.0116174630820751, -0.0387799665331841, 0.0224509742110968, 33508, 32325, 23207, NaN
1472256120.472, -0.00953763443976641, -0.037763699889183, 0.0219251643866301, 33509, 32318, 23187, NaN
1472256121.476, -0.00626709312200546, -0.0382939539849758, 0.0216454435139894, 33501, 32324, 23207, NaN
1472256122.476, -0.00139547791332006, -0.0385641977190971, 0.0210264213383198, 33501, 32310, 23208, NaN
1472256123.476, 0.00434730853885412, -0.0380057021975517, 0.0203970056027174, 33505, 32322, 23208, NaN
1472256124.476, 0.0103454068303108, -0.0369724184274673, 0.0203979536890984, 33495, 32326, 23199, NaN
1472256125.476, 0.0157889574766159, -0.0365987569093704, 0.0200402736663818, 33502, 32326, 23183, NaN
1472256126.476, 0.0214839316904545, -0.0368956252932549, 0.0201216358691454, 33511, 32315, 23211, NaN
1472256127.476, 0.026865491643548, -0.0375178791582584, 0.0196891613304615, 33520, 32316, 23197, NaN
1472256128.476, 0.0320120826363564, -0.0374750792980194, 0.0194753464311361, 33504, 32328, 23206, NaN
1472256129.476, 0.036938052624464, -0.0368389748036861, 0.0195233691483736, 33496, 32335, 23218, NaN
1472256130.476, 0.0420938655734062, -0.0365120507776737, 0.0191126484423876, 33503, 32323, 23208, NaN
1472256131.476, 0.0455324128270149, -0.0370105691254139, 0.0192862693220377, 33497, 32323, 23197, NaN
1472256132.484, 0.0469176732003689, -0.0375276431441307, 0.0197840500622988, 33498, 32326, 23208, NaN
1472256133.484, 0.0479061529040337, -0.0378470569849014, 0.0190281365066767, 33485, 32314, 23223, NaN
1472256133.484, 0.0487614050507545, -0.0387592539191246, 0.019331743940711, 33508, 32327, 23205, NaN
1472256134.492, 0.0497285537421703, -0.0385555662214756, 0.0191139224916697, 33501, 32323, 23200, NaN
1472256135.492, 0.0501179322600365, -0.0386425890028477, 0.0198360607028008, 33504, 32316, 23198, NaN
1472256136.492, 0.0490216761827469, -0.0391083583235741, 0.0195916518568993, 33501, 32318, 23218, NaN
1472256137.492, 0.0470184348523617, -0.0390924401581287, 0.019629143178463, 33503, 32315, 23207, NaN
1472256138.492, 0.0450015068054199, -0.039191722869873, 0.0198886413127184, 33498, 32321, 23200, NaN
1472256139.492, 0.0429366007447243, -0.0389200858771801, 0.0203341692686081, 33505, 32319, 23202, NaN
1472256140.492, 0.0405827090144157, -0.0389045663177967, 0.0211079232394695, 33492, 32323, 23214, NaN
1472256141.492, 0.0371951647102833, -0.0389342159032822, 0.021339938044548, 33500, 32327, 23201, NaN
1472256142.492, 0.0329560376703739, -0.0387376360595226, 0.0209155529737473, 33488, 32321, 23207, NaN
1472256143.492, 0.0271957386285067, -0.0387012287974358, 0.0203911699354649, 33515, 32319, 23206, NaN
1472256144.492, 0.0210730545222759, -0.0390271469950676, 0.0202825032174587, 33503, 32324, 23207, NaN
1472256145.492, 0.0158743113279343, -0.0380938202142715, 0.0204566922038794, 33505, 32320, 23201, NaN
1472256146.492, 0.0110124526545405, -0.0378486774861813, 0.0198224410414696, 33512, 32329, 23193, NaN
1472256147.492, 0.00669699348509312, -0.0378674194216728, 0.0198184996843338, 33499, 32320, 23190, NaN
1472256148.492, 0.00230169272981584, -0.0378959402441978, 0.0193664338439703, 33496, 32331, 23203, NaN
1472256149.492, -0.00245423102751374, -0.0373556986451149, 0.0187242198735476, 33513, 32312, 23204, NaN
1472256150.492, -0.00661939848214388, -0.0373070798814297, 0.0184870064258575, 33493, 32323, 23206, NaN
1472256151.492, -0.00977342110127211, -0.037714384496212, 0.0187157019972801, 33508, 32321, 23206, NaN
1472256152.492, -0.0120947863906622, -0.0371511355042458, 0.0180061049759388, 33511, 32332, 23205, NaN
1472256153.492, -0.0142662916332483, -0.0360496528446674, 0.0172367766499519, 33511, 32321, 23200, NaN
1472256154.492, -0.0159995947033167, -0.0371416583657265, 0.0170481894165277, 33502, 32310, 23206, NaN
1472256155.492, -0.0184728503227234, -0.0372335687279701, 0.0165977720171213, 33507, 32332, 23196, NaN
1472256156.492, -0.0204013753682375, -0.0360289253294468, 0.0159429777413607, 33507, 32315, 23194, NaN
1472256157.492, -0.0212557017803192, -0.0365536212921143, 0.016631193459034, 33481, 32312, 23214, NaN
1472256158.492, -0.0217019505798817, -0.0368195660412312, 0.0170027203857899, 33505, 32334, 23203, NaN
1472256159.492, -0.0220291186124086, -0.0376540347933769, 0.0172904618084431, 33505, 32321, 23193, NaN
1472256160.502, -0.021845692768693, -0.0381072573363781, 0.0170998461544514, 33496, 32323, 23199, NaN
1472256161.502, -0.0211139097809792, -0.0371959581971169, 0.0173683781176805, 33511, 32321, 23196, NaN
1472256162.502, -0.0174073502421379, -0.037357222288847, 0.0170658305287361, 33510, 32313, 23205, NaN
1472256162.502, -0.00547846266999841, -0.0380318090319633, 0.0169607046991587, 33505, 32331, 23195, NaN
1472256163.51, 0.0172434411942959, -0.0377490632236004, 0.0171747207641602, 33515, 32323, 23206, NaN
1472256164.51, 0.0506337881088257, -0.0367868728935719, 0.0175002533942461, 33497, 32321, 23217, NaN
1472256165.51, 0.083647333085537, -0.0362808182835579, 0.017402958124876, 33516, 32325, 23200, 150.742309570312
1472256166.51, 0.0571380779147148, -0.0357747636735439, 0.0178660787642002, 33501, 32317, 23197, NaN
1472256166.51, 0.0345392450690269, -0.0359418280422688, 0.018267909064889, 33492, 32329, 23215, NaN
1472256167.516, 0.0155318733304739, -0.0371600538492203, 0.0177052356302738, 33506, 32334, 23205, NaN
1472256168.516, -0.000195877291844226, -0.037973627448082, 0.0182219054549932, 33494, 32326, 23205, NaN
1472256169.516, -0.0129476198926568, -0.0383721850812435, 0.0186540335416794, 33510, 32318, 23207, NaN
1472256170.516, -0.0230175741016865, -0.0379250571131706, 0.0185402631759644, 33504, 32327, 23203, NaN
1472256170.516, -0.0306894015520811, -0.0369862131774426, 0.0180096849799156, 33507, 32319, 23205, NaN
1472256171.52, -0.0362350791692734, -0.0364275425672531, 0.0168356280773878, 33514, 32316, 23207, NaN
1472256172.52, -0.0399138778448105, -0.035997424274683, 0.0163155868649483, 33497, 32321, 23210, NaN
1472256173.52, -0.0419714450836182, -0.0360533222556114, 0.0161266662180424, 33507, 32322, 23206, NaN
1472256174.52, -0.0426390320062637, -0.0363245345652103, 0.0168512742966413, 33504, 32323, 23207, NaN
1472256174.52, -0.0421328842639923, -0.0354427359998226, 0.0167904179543257, 33520, 32332, 23208, NaN
1472256175.522, -0.0406537763774395, -0.0351663008332253, 0.0173074807971716, 33504, 32324, 23208, NaN
1472256176.522, -0.0383867435157299, -0.0351849123835564, 0.0170371402055025, 33501, 32324, 23200, NaN
1472256177.522, -0.035500954836607, -0.0354589410126209, 0.0177958030253649, 33501, 32315, 23197, NaN
1472256178.522, -0.0321497432887554, -0.0351419448852539, 0.0172039121389389, 33497, 32322, 23204, NaN
1472256178.526, -0.0284708142280579, -0.0349050052464008, 0.0170463230460882, 33507, 32320, 23197, NaN
1472256179.526, -0.0245865508913994, -0.0351733230054379, 0.016494395211339, 33499, 32332, 23211, NaN
1472256180.526, -0.0206044912338257, -0.0354956910014153, 0.0165409855544567, 33501, 32333, 23209, NaN
1472256181.526, -0.0166178848594427, -0.0346145555377007, 0.0164978876709938, 33511, 32322, 23202, NaN
1472256182.526, -0.0127063570544124, -0.0349316969513893, 0.0160385947674513, 33504, 32323, 23206, NaN
1472256183.526, -0.00893665291368961, -0.0341456383466721, 0.0162270255386829, 33497, 32339, 23210, NaN
1472256184.534, -0.00536345457658172, -0.0344715230166912, 0.0163622442632914, 33516, 32324, 23198, NaN
1472256185.534, -0.00203023315407336, -0.0344808921217918, 0.0164519958198071, 33501, 32319, 23208, NaN
1472256186.534, 0.00102984835393727, -0.0344769991934299, 0.017064843326807, 33507, 32323, 23213, NaN
1472256187.534, 0.00379302143119276, -0.0340440310537815, 0.0162614490836859, 33514, 32320, 23209, NaN
1472256188.534, 0.00624398421496153, -0.0343657024204731, 0.0165583603084087, 33496, 32312, 23205, NaN
1472256189.534, 0.00837497971951962, -0.034372091293335, 0.0162620507180691, 33528, 32309, 23192, NaN
1472256190.534, 0.0101848915219307, -0.0338607393205166, 0.0157212652266026, 33510, 32323, 23206, NaN
1472256191.534, 0.0116783557459712, -0.0334585346281528, 0.0152118941769004, 33503, 32326, 23211, NaN
1472256192.534, 0.0128649147227407, -0.0334901623427868, 0.0154439629986882, 33515, 32312, 23201, NaN
1472256193.534, 0.013758203946054, -0.0333246104419231, 0.0154315959662199, 33515, 32320, 23204, NaN
1472256194.534, 0.0143751874566078, -0.0329428054392338, 0.0151970516890287, 33515, 32316, 23201, NaN
1472256195.534, 0.0147222252562642, -0.0322227068245411, 0.016124127432704, 33495, 32333, 23204, NaN
1472256196.534, 0.0116293774917722, -0.032712459564209, 0.0161704234778881, 33505, 32317, 23206, NaN
1472256197.534, 0.004811130464077, -0.0323530733585358, 0.0164129864424467, 33515, 32335, 23208, NaN
1472256198.534, -0.00456462614238262, -0.0318038687109947, 0.0161301326006651, 33507, 32321, 23200, NaN
1472256199.534, -0.0159131977707148, -0.0323692597448826, 0.016006363555789, 33493, 32327, 23209, NaN
1472256200.534, -0.0266870688647032, -0.0327063426375389, 0.0153998760506511, 33501, 32315, 23208, NaN
1472256201.534, -0.035727683454752, -0.0317642875015736, 0.0148170683532953, 33507, 32313, 23208, NaN
1472256202.534, -0.0425085872411728, -0.0314634740352631, 0.0149407647550106, 33518, 32321, 23204, NaN
1472256203.534, -0.0468777753412724, -0.0312457419931889, 0.0147474575787783, 33501, 32326, 23210, NaN
1472256204.534, -0.0485759377479553, -0.0314630381762981, 0.0141815422102809, 33511, 32318, 23200, NaN
1472256205.534, -0.0480589978396893, -0.0316018536686897, 0.0149514609947801, 33497, 32340, 23199, NaN
1472256206.534, -0.0451244674623013, -0.0315673276782036, 0.0143150882795453, 33506, 32324, 23196, NaN
1472256207.534, -0.0401737652719021, -0.0320362634956837, 0.0149749526754022, 33505, 32330, 23205, NaN
1472256208.534, -0.0333744250237942, -0.0318690277636051, 0.0149293327704072, 33506, 32312, 23199, NaN
1472256209.534, -0.025133952498436, -0.032442681491375, 0.0152998464182019, 33503, 32327, 23214, NaN
1472256210.534, -0.0158257521688938, -0.0335266627371311, 0.0156512800604105, 33513, 32333, 23212, NaN
1472256211.534, -0.00579709792509675, -0.0338930748403072, 0.0158831644803286, 33516, 32320, 23193, NaN
1472256212.534, 0.00474625080823898, -0.0333819203078747, 0.0156654734164476, 33498, 32313, 23216, NaN
1472256213.542, 0.015185097232461, -0.0334817245602608, 0.016210375353694, 33505, 32318, 23196, NaN